STARLINK-1199, 45201

Orbit data source: Space-Track

STARLINK-1199, 45201 is a payload satellite owned by SpaceX/Seattle (US) in LEO that was launched on Mon, 17 Feb 2020 UTC via an FALCON 9 launch vehicle from the Air Force Eastern Test Range (AFETR). Payload-class satellites include a variety of spacecraft equipped with specific instruments for various scientific and technological missions. These include communications satellites like Starlink; space stations such as the ISS; scientific satellites like the Hubble; Earth observation satellites from companies like Planet Labs, Umbra, and HawkEye 360; GPS; miniature CubeSats for education and research; and military/defense satellites.

Loading next visibility...
Identifier
45201, 2020-012Z
Orbit
LEO
Country
Flag of USUS
Related business
Manufacturer
SpaceX/Seattle
Mission
Operational Commercial Communications
Bus & Motor
STARLINK, Unknown motor
Mass
260 kg wet, ~248 kg dry
Launch date (UTC)
2020-02-17 (6 years ago)
Launch vehicle
FALCON 9
Launch site
Air Force Eastern Test Range (AFETR)
Object type
Payload
Rocket body
Debris
Shape & HBR
Box + 1 Pan, 10.1 m
Radar Cross Section
13.562 m², Large (>1 m²)

Expand to show TLE details & history
Last TLE update: 12 hours ago

TLE from 12 hours ago
0 STARLINK-1199
1 45201U 20012Z   26073.94202747  .00003883  00000-0  14311-3 0  9995
2 45201  53.1606 359.4390 0001407  87.1748 272.9414 15.30209510335966
Epoch: 2026-03-14T22:36Z
TLE epoch observation values (Epoch: 2026-03-14T22:36:31.173Z)
Latitude
-0°
Longitude
-152.24686°
Altitude
476.037 km
Speed
7.629 km/s
True Right ascension
23h 57m 45s
True Declination
0° 00' 00"
Sunlit
Object was in daylight at epoch
Visualization orbit readout
Latitude
Unknown
Longitude
Unknown
Altitude
Unknown
Speed
Unknown
Apparent Right ascension
Unknown
Apparent Declination
Unknown
Sunlit
N/A
Visualization observer readout
Local Sidereal Time
15:08:22
Azimuth
Unknown
Elevation
Unknown
Doppler factor
Unknown
Orbital elements
Apogee altitude
476.407 km
Perigee altitude
474.479 km
Semi-major axis
6,853.58 km
Eccentricity
0.00014
Inclination
53.1606°
RAAN
359.439°
Arg. of periapsis
87.1748°
True anomaly
272.9253°
Mean anomaly
272.9414°
Eccentric anomaly
272.93335°
Mean motion
3.82531 °/min
Orbital period
94.11 mins
BSTAR
0.00014311
Loading maneuver chart data...
Computing Atmospheric mass density...

Documentation

Showing up to 5 results
|